[[{"header":{"parameterUnit":"m.s-1","parameterCategory":1,"la1":30.2991,"la2":30.254,"lo1":-89.0895,"lo2":-89.0444,"dy":0.0017,"dx":0.0017,"nx":28,"ny":28,"refTime":"2023-10-08T03:00:00:Z","depth":0,"parameterNumber":2,"parameterNumberName":"U-component_of_WINDS"},"data":[0,0,0,0,0,0,0,0,0,0,0,0,0,0,0,0,0,0,0,0,0,0,0,0,0,0,0,0,0,0,0,0,0,0,0,0,0,0,0,0,0,0,0,0,0,0,0,0,0,0,0,0,0,0,0,0,0,0,1.853,1.8531,0,1.8609,1.861,1.8611,1.8602,1.8601,1.86,1.8599,1.8678,1.8681,1.8685,0,0,0,0,0,0,0,0,0,0,0,0,0,1.8368,1.8371,1.853,1.8531,1.8532,1.8609,1.861,1.8611,1.8603,1.8601,1.86,1.8598,1.8677,1.8681,1.8685,0,0,0,0,0,0,0,0,0,0,0,0,0,1.8442,1.8372,1.853,1.8537,1.8538,1.8609,1.861,1.8612,1.8603,1.8601,1.8599,1.8597,1.8676,1.8681,1.8686,1.8754,0,0,1.8701,1.8703,0,0,0,0,0,0,0,0,1.8437,1.8448,1.8535,1.8537,1.8538,1.8594,1.8582,1.8659,1.8603,1.8578,1.8599,1.8597,1.8652,1.8658,1.8677,1.8757,1.8761,1.8701,1.8704,1.8706,1.8708,0,0,0,0,0,0,0,1.8432,1.8444,1.8561,1.8536,1.8538,1.8535,1.8544,1.8597,1.8625,1.858,1.858,1.859,1.8652,1.8673,1.8679,1.8762,1.8701,1.8705,1.8708,1.871,1.8897,1.8899,0,0,0,0,0,0,1.8426,1.844,1.8559,1.8564,1.8482,1.854,1.8549,1.8578,1.8624,1.8629,1.8591,1.8589,1.8665,1.8673,1.8682,1.8762,1.8706,1.8711,1.8714,1.8895,1.8898,1.89,0,0,0,0,0,0,1.8422,1.8437,1.8556,1.8502,1.8517,1.8544,1.8577,1.8581,1.8601,1.8632,1.8637,1.8607,1.8664,1.8675,1.8735,1.8764,1.8713,1.8717,1.8893,1.8896,1.8899,1.8923,0,0,0,0,0,0,1.8418,1.8435,1.8463,1.8503,1.852,1.8609,1.8579,1.8584,1.861,1.8608,1.8648,1.8653,1.8663,1.8728,1.874,1.877,1.8721,1.8891,1.8895,1.8898,1.892,1.8927,1.8932,0,0,0,0,0,1.8412,1.8467,1.8464,1.8478,1.8554,1.861,1.862,1.8631,1.8612,1.8639,1.8658,1.8652,1.876,1.8734,1.8748,1.878,1.8889,1.8893,1.8898,1.8917,1.8925,1.8932,0,0,0,0,0,0,1.8429,1.8472,1.847,1.8539,1.8571,1.8609,1.8643,1.864,1.8678,1.8674,1.8686,1.8695,1.8755,1.8774,1.8744,1.8846,1.8821,1.8829,1.8831,1.8839,1.8846,1.8839,1.8725,0,0,0,0,0,1.8441,1.8484,1.8519,1.8577,1.8593,1.8615,1.864,1.8646,1.8679,1.8692,1.8716,1.8749,1.8789,1.8816,1.8855,1.8923,1.893,1.8952,1.8958,1.8963,1.8969,1.9002,1.9011,1.8915,1.8915,1.8915,0,0,1.8466,1.8495,1.8521,1.8581,1.8606,1.8649,1.8627,1.8673,1.8704,1.8699,1.8757,1.8775,1.8812,1.8875,1.8904,1.8892,1.8997,1.8969,1.8973,1.8976,1.9008,1.9017,1.9025,1.8918,1.8918,1.8917,0,0,1.8533,1.856,1.8609,1.8635,1.8674,1.8688,1.87,1.8738,1.8749,1.8807,1.8804,1.8841,1.8912,1.8936,1.8958,1.9032,1.9026,1.9045,1.9077,1.9109,1.9117,1.9124,1.9147,1.9155,1.9051,1.9051,1.9051,0,1.8559,1.8623,1.8635,1.8681,1.8706,1.8704,1.8753,1.8777,1.8826,1.8843,1.883,1.8916,1.8941,1.9008,1.9026,1.9045,1.9057,1.9039,1.9115,1.9122,1.9128,1.915,1.9159,1.9052,1.9052,1.9052,1.9052,0,1.8651,1.8696,1.8731,1.8778,1.8807,1.8855,1.8872,1.89,1.8903,1.8918,1.8975,1.9004,1.9048,1.9065,1.9069,1.9132,1.9123,1.9113,1.9088,1.9139,1.916,1.9169,1.9055,1.9054,1.9054,1.9053,0,0,1.8731,1.8782,1.8795,1.8814,1.8856,1.889,1.8937,1.8979,1.9001,1.9036,1.9073,1.9132,1.9121,1.9146,1.9153,1.9182,1.9234,1.9167,1.9168,1.9176,1.9302,1.9307,1.9317,1.9232,1.9233,1.9235,1.9298,0,1.8799,1.888,1.8891,1.8963,1.9003,1.9,1.904,1.9069,1.9084,1.9119,1.9135,1.9175,1.916,1.9175,1.9204,1.9222,1.9259,1.9218,1.9264,1.9265,1.9252,1.9329,1.9335,1.9393,1.9306,1.9308,1.9309,0,1.8889,1.8924,1.9,1.9033,1.905,1.9086,1.9124,1.9158,1.919,1.9199,1.9226,1.9228,1.9274,1.9248,1.931,1.9281,1.9301,1.9313,1.9315,1.9318,1.9288,1.933,1.9413,1.942,1.9322,1.9321,1.932,0,1.8935,1.9002,1.9054,1.9072,1.9113,1.9138,1.9156,1.9186,1.921,1.9244,1.9259,1.9298,1.9318,1.9348,1.9359,1.9341,1.9419,1.9396,1.9426,1.9425,1.944,1.9439,1.9524,1.9458,1.9458,1.9458,1.9457,0,1.9008,1.9053,1.9075,1.9107,1.9157,1.9169,1.9218,1.9235,1.9262,1.9296,1.9297,1.9329,1.9344,1.9378,1.9388,1.9435,1.9446,1.9452,1.9453,1.945,1.9449,1.9461,1.9457,1.946,1.9459,1.9459,1.9459,0,1.9067,1.9084,1.9141,1.9175,1.9184,1.9219,1.9247,1.9278,1.9292,1.9335,1.9346,1.9368,1.9407,1.9423,1.9472,1.9478,1.9532,1.9532,1.9521,1.952,1.9548,1.9544,1.9642,1.9654,1.9583,1.9583,1.9584,0,1.9111,1.9146,1.9183,1.9206,1.9224,1.9262,1.9286,1.9298,1.9323,1.9361,1.9386,1.9425,1.9457,1.9521,1.954,1.9577,1.9575,1.9607,1.9581,1.9576,1.9572,1.9569,1.9571,1.9611,1.9612,1.9613,1.9613,0,1.9186,1.9192,1.9227,1.9264,1.9293,1.9323,1.9352,1.9371,1.9387,1.9415,1.9455,1.948,1.9529,1.9567,1.9604,1.9622,1.9619,1.9622,1.963,1.9625,1.9616,1.9618,1.9531,1.9619,1.9618,1.9618,1.9617,1.9617,1.9237,1.9266,1.9296,1.9334,1.9357,1.9384,1.9413,1.943,1.9464,1.9505,1.951,1.9552,1.9581,1.9631,1.965,1.9682,1.9674,1.9686,1.9689,1.9691,1.9692,1.9613,1.9689,1.9689,1.9689,1.9689,1.9689,0,1.931,1.9328,1.9363,1.9403,1.9432,1.9429,1.946,1.9484,1.9522,1.9549,1.958,1.9625,1.9661,1.9683,1.972,1.9741,1.9741,1.975,1.9747,1.975,1.9699,1.9687,1.9749,1.9749,1.9749,1.9749,1.9749,1.9749,1.9351,1.9399,1.9408,1.9467,1.9486,1.9527,1.9545,1.9568,1.959,1.9639,1.967,1.9684,1.9708,1.9746,1.9779,1.9784,1.9796,1.9806,1.981,1.9761,1.9755,1.9748,1.9737,1.9809,1.9809,1.9859,1.9859,1.9859]},{"header":{"parameterUnit":"m.s-1","parameterCategory":1,"la1":30.2991,"la2":30.254,"lo1":-89.0895,"lo2":-89.0444,"dy":0.0017,"dx":0.0017,"nx":28,"ny":28,"refTime":"2023-10-08T03:00:00:Z","depth":0,"parameterNumber":3,"parameterNumberName":"V-component_of_WINDS"},"data":[0,0,0,0,0,0,0,0,0,0,0,0,0,0,0,0,0,0,0,0,0,0,0,0,0,0,0,0,0,0,0,0,0,0,0,0,0,0,0,0,0,0,0,0,0,0,0,0,0,0,0,0,0,0,0,0,0,0,2.7697,2.7697,0,2.7756,2.7757,2.7757,2.7735,2.7734,2.7733,2.7731,2.7789,2.7792,2.7795,0,0,0,0,0,0,0,0,0,0,0,0,0,2.7559,2.7562,2.7697,2.7697,2.7698,2.7756,2.7757,2.7758,2.7735,2.7734,2.7732,2.7731,2.7788,2.7792,2.7795,0,0,0,0,0,0,0,0,0,0,0,0,0,2.7619,2.7563,2.7696,2.7694,2.7694,2.7756,2.7757,2.7758,2.7736,2.7734,2.7732,2.773,2.7787,2.7791,2.7796,2.7862,0,0,2.7808,2.781,0,0,0,0,0,0,0,0,2.7615,2.7624,2.7694,2.7694,2.7695,2.7736,2.773,2.7793,2.7736,2.772,2.7731,2.7729,2.7773,2.7778,2.7794,2.7865,2.7867,2.7809,2.7811,2.7813,2.7814,0,0,0,0,0,0,0,2.7611,2.7621,2.772,2.7695,2.7695,2.7688,2.7695,2.7741,2.7757,2.7721,2.772,2.7727,2.7773,2.779,2.7795,2.7868,2.7809,2.7812,2.7815,2.7817,2.7993,2.7995,0,0,0,0,0,0,2.7607,2.7618,2.7718,2.7722,2.7649,2.7693,2.77,2.7725,2.7757,2.7759,2.7729,2.7726,2.7784,2.779,2.7797,2.7875,2.7813,2.7817,2.7819,2.7991,2.7993,2.7996,0,0,0,0,0,0,2.7605,2.7617,2.7716,2.7669,2.7682,2.7697,2.7726,2.7727,2.7744,2.7762,2.7765,2.7744,2.7782,2.7791,2.7845,2.7876,2.7819,2.7823,2.7988,2.7991,2.7994,2.8032,0,0,0,0,0,0,2.7601,2.7616,2.7642,2.767,2.7684,2.7765,2.7728,2.773,2.7752,2.7748,2.7777,2.7779,2.7781,2.7839,2.785,2.7881,2.7826,2.7985,2.799,2.7993,2.8028,2.8036,2.8043,0,0,0,0,0,2.7596,2.7651,2.7644,2.7656,2.7718,2.7767,2.7774,2.7776,2.7754,2.778,2.7791,2.7779,2.7872,2.7845,2.7856,2.789,2.7983,2.7988,2.7993,2.8024,2.8034,2.8042,0,0,0,0,0,0,2.7626,2.7654,2.7647,2.7713,2.7737,2.7763,2.7796,2.7787,2.7818,2.7814,2.7814,2.782,2.7876,2.7888,2.7858,2.7954,2.7924,2.7931,2.7944,2.7953,2.7961,2.7956,2.7829,0,0,0,0,0,2.764,2.7678,2.7701,2.7756,2.7769,2.778,2.7802,2.7801,2.7826,2.7836,2.7852,2.7875,2.791,2.7932,2.7965,2.803,2.8034,2.8058,2.8065,2.8071,2.8077,2.8109,2.8119,2.8012,2.8011,2.8011,0,0,2.767,2.769,2.7714,2.7763,2.7782,2.782,2.7789,2.7831,2.7859,2.7842,2.7894,2.7906,2.7933,2.7992,2.8018,2.8004,2.8108,2.8078,2.8082,2.8085,2.8115,2.8126,2.8135,2.8015,2.8014,2.8014,0,0,2.7743,2.7763,2.781,2.783,2.7859,2.7866,2.7877,2.7903,2.7911,2.7963,2.795,2.7982,2.8042,2.8061,2.8078,2.8156,2.8144,2.8166,2.8205,2.8236,2.8245,2.8252,2.8278,2.8287,2.8172,2.8173,2.8173,0,2.7776,2.7834,2.7836,2.7878,2.7899,2.7886,2.7932,2.795,2.7989,2.8002,2.7986,2.8059,2.8076,2.8137,2.8156,2.8172,2.8182,2.8163,2.8244,2.8251,2.8258,2.8282,2.8292,2.8175,2.8175,2.8174,2.8174,0,2.7871,2.7912,2.7946,2.7983,2.8007,2.8052,2.8058,2.8083,2.8079,2.8087,2.8139,2.8159,2.8194,2.8209,2.8206,2.827,2.8259,2.8243,2.8213,2.8271,2.8293,2.8303,2.8178,2.8178,2.8177,2.8176,0,0,2.7966,2.8002,2.8014,2.803,2.806,2.809,2.8133,2.8168,2.8187,2.8213,2.8247,2.8297,2.8282,2.8302,2.8301,2.8328,2.8385,2.8308,2.8309,2.832,2.8453,2.8464,2.8475,2.8378,2.838,2.8381,2.845,0,2.804,2.8115,2.8117,2.8186,2.8221,2.8208,2.8244,2.8266,2.8274,2.8304,2.8312,2.8347,2.8325,2.8336,2.8363,2.8373,2.8412,2.8368,2.8408,2.8409,2.84,2.8487,2.8499,2.8563,2.8459,2.8461,2.8462,0,2.8136,2.8165,2.8237,2.826,2.8275,2.8308,2.8338,2.8368,2.8391,2.8394,2.8415,2.841,2.8451,2.842,2.8475,2.8445,2.8461,2.8468,2.847,2.8473,2.8438,2.849,2.8584,2.8593,2.8476,2.8475,2.8474,0,2.8195,2.8252,2.8302,2.8315,2.8344,2.8367,2.8379,2.84,2.842,2.8447,2.8459,2.849,2.8507,2.853,2.8532,2.8509,2.8586,2.8556,2.8589,2.8588,2.8605,2.8603,2.87,2.8618,2.8618,2.8618,2.8618,0,2.8276,2.832,2.8328,2.8358,2.8406,2.8407,2.8454,2.8464,2.8483,2.8514,2.8505,2.8533,2.8535,2.8564,2.8565,2.8609,2.8617,2.862,2.8619,2.862,2.8619,2.8629,2.8624,2.862,2.862,2.8619,2.8619,0,2.835,2.8357,2.841,2.8432,2.8438,2.8472,2.849,2.8518,2.8525,2.8563,2.8572,2.8582,2.8616,2.862,2.8659,2.866,2.8712,2.8708,2.8705,2.8703,2.8735,2.8731,2.884,2.8854,2.8764,2.8765,2.8766,0,2.8401,2.8434,2.8459,2.8479,2.8493,2.8526,2.8546,2.8547,2.8568,2.8595,2.8619,2.8652,2.8677,2.8731,2.8741,2.877,2.8765,2.8801,2.8769,2.8768,2.8763,2.876,2.8762,2.8807,2.8808,2.8809,2.8809,0,2.8489,2.849,2.852,2.855,2.8574,2.8598,2.8621,2.8638,2.8641,2.8665,2.8699,2.8719,2.8758,2.879,2.8818,2.8829,2.8819,2.882,2.8828,2.8828,2.8824,2.8824,2.8719,2.8817,2.8816,2.8816,2.8815,2.8815,2.8551,2.8579,2.86,2.8633,2.865,2.867,2.8697,2.8706,2.8735,2.8767,2.8766,2.8803,2.8822,2.8859,2.8872,2.89,2.8888,2.8901,2.8904,2.8907,2.8909,2.8821,2.8905,2.8905,2.8905,2.8905,2.8905,0,2.8637,2.865,2.868,2.8711,2.8736,2.8725,2.8749,2.877,2.8803,2.8822,2.8847,2.8885,2.8915,2.8926,2.8955,2.8975,2.8971,2.8982,2.898,2.8982,2.8919,2.8908,2.8985,2.8985,2.8985,2.8985,2.8985,2.8985,2.8685,2.873,2.8734,2.8787,2.8799,2.8835,2.8849,2.8867,2.8882,2.8925,2.895,2.8957,2.8973,2.9002,2.9028,2.9031,2.9041,2.9054,2.9054,2.8995,2.8987,2.8979,2.8968,2.9056,2.9057,2.9114,2.9115,2.9115]}]]